User: anonymous   Login
Location: Caltech
(34.1382°N, 118.1253°W)
Time: 11:58:36
(UTC-07:00)
Language:

Meteor 1-11 Rocket - Orbit

View from above orbital plane
View from above orbital plane
View from above satellite
View from above satellite

Ground track
Ground track

The orbit data is extracted from the following two-line orbital elements,

1 05918U 72022B   15245.49061458 -.00000064  00000-0 -45843-4 0  9990
2 05918  81.2342 238.2160 0058843   5.0231 355.1514 14.05776765226154
Epoch (UTC): 02 September 2015 11:46:29
Eccentricity: 0.0058843
inclination: 81.2342°
perigee height: 831 km
apogee height: 916 km
right ascension of ascending node: 238.2160°
argument of perigee: 5.0231°
revolutions per day: 14.05776765
mean anomaly at epoch: 355.1514°
orbit number at epoch: 22615

The dashed part of the orbit path shows where the satellite is in the earth's shadow,  

DLR